CW5988 Weather Reports


Display with metric or nautical units.
time (UTC)temp
F
wind
direction
speed
MPH
gust
MPH
rain 1hr
in
rain 24hr
in
rain mn
in
humidity
%
barometer
mb
20260902172434 66 212 5.0 13.0 0.00 0.00 0.00 78 1017.5
20260902171950 66 249 6.0 13.0 0.00 0.00 0.00 78 1017.5
20260902171435 66 221 6.0 13.0 0.00 0.00 0.00 79 1017.4
20260902170921 66 235 4.0 11.0 0.00 0.00 0.00 79 1017.5
20260902170428 66 242 4.0 15.0 0.00 0.00 0.00 78 1017.5
20260902165933 66 226 5.0 15.0 0.00 0.00 0.00 78 1017.4
20260902165420 66 211 3.0 13.0 0.00 0.00 0.00 78 1017.4
20260902164920 66 238 5.0 12.0 0.00 0.00 0.00 78 1017.4
20260902164426 66 247 4.0 10.0 0.00 0.00 0.00 78 1017.3
20260902163934 66 213 6.0 10.0 0.00 0.00 0.00 77 1017.3
20260902163419 66 227 5.0 10.0 0.00 0.00 0.00 77 1017.2
20260902162927 66 234 2.0 9.0 0.00 0.00 0.00 77 1017.3
20260902162432 66 208 3.0 8.0 0.00 0.00 0.00 77 1017.3
20260902161934 66 268 2.0 5.0 0.00 0.00 0.00 77 1017.3
20260902161436 66 258 2.0 6.0 0.00 0.00 0.00 77 1017.3
20260902160920 66 151 3.0 6.0 0.00 0.00 0.00 77 1017.3
20260902160423 65 107 2.0 6.0 0.00 0.00 0.00 77 1017.2
20260902155925 65 134 2.0 6.0 0.00 0.00 0.00 76 1017.2
20260902155432 65 196 2.0 6.0 0.00 0.00 0.00 76 1017.2
20260902154936 65 134 3.0 6.0 0.00 0.00 0.00 76 1017.2
20260902154422 65 160 3.0 6.0 0.00 0.00 0.00 76 1017.3
20260902153926 65 268 1.0 5.0 0.00 0.00 0.00 76 1017.2
20260902153428 65 158 1.0 5.0 0.00 0.00 0.00 77 1017.3
20260902152931 64 88 1.0 4.0 0.00 0.00 0.00 77 1017.3
20260902152436 64 99 1.0 5.0 0.00 0.00 0.00 77 1017.3
20260902151921 64 55 3.0 5.0 0.00 0.00 0.00 77 1017.3
20260902151425 64 101 1.0 4.0 0.00 0.00 0.00 78 1017.2
20260902150948 63 83 2.0 4.0 0.00 0.00 0.00 78 1017.3
20260902150428 63 168 2.0 4.0 0.00 0.00 0.00 78 1017.2
20260902145929 63 177 1.0 3.0 0.00 0.00 0.00 78 1017.2
20260902145434 63 116 1.0 3.0 0.00 0.00 0.00 79 1016.9
20260902144918 63 34 1.0 2.0 0.00 0.00 0.00 79 1016.8
20260902144446 63 209 1.0 2.0 0.00 0.00 0.00 79 1016.7
20260902143930 62 313 0.0 2.0 0.00 0.00 0.00 79 1016.7
20260902143430 62 45 0.0 2.0 0.00 0.00 0.00 78 1016.6
20260902142934 62 88 0.0 2.0 0.00 0.00 0.00 78 1016.5
20260902142446 62 104 1.0 2.0 0.00 0.00 0.00 78 1016.6
20260902141929 62 205 1.0 2.0 0.00 0.00 0.00 78 1016.6
20260902141435 62 177 1.0 2.0 0.00 0.00 0.00 78 1016.6
20260902140921 62 177 1.0 2.0 0.00 0.00 0.00 78 1016.6
20260902140424 62 177 1.0 2.0 0.00 0.00 0.00 78 1016.6
20260902135921 62 45 0.0 2.0 0.00 0.00 0.00 78 1016.6
20260902135425 63 134 0.0 2.0 0.00 0.00 0.00 77 1016.6
20260902134930 63 134 1.0 3.0 0.00 0.00 0.00 77 1016.6
20260902134434 63 222 1.0 3.0 0.00 0.00 0.00 77 1016.6
20260902133940 63 134 1.0 3.0 0.00 0.00 0.00 77 1016.5
20260902133421 63 151 1.0 3.0 0.00 0.00 0.00 77 1016.6
20260902132925 62 123 1.0 2.0 0.00 0.00 0.00 77 1016.6
20260902132429 62 240 1.0 2.0 0.00 0.00 0.00 77 1016.5
20260902131934 62 222 1.0 3.0 0.00 0.00 0.00 77 1016.4
20260902131449 62 27 1.0 3.0 0.00 0.00 0.00 77 1016.4
20260902130933 62 160 1.0 3.0 0.00 0.00 0.00 77 1016.4
20260902130436 62 147 2.0 3.0 0.00 0.00 0.00 77 1016.3
20260902125921 62 107 0.0 2.0 0.00 0.00 0.00 77 1016.3
20260902125427 62 268 1.0 2.0 0.00 0.00 0.00 77 1016.3
20260902124927 62 88 1.0 2.0 0.00 0.00 0.00 77 1016.4
20260902124433 62 330 1.0 3.0 0.00 0.00 0.00 77 1016.3
20260902123937 62 158 2.0 4.0 0.00 0.00 0.00 78 1016.2
20260902123441 62 1 1.0 4.0 0.00 0.00 0.00 78 1016.3
20260902122924 63 160 2.0 4.0 0.00 0.00 0.00 78 1016.2
20260902122430 63 196 1.0 5.0 0.00 0.00 0.00 78 1016.2
20260902121936 63 88 1.0 5.0 0.00 0.00 0.00 78 1016.2
20260902121434 63 160 1.0 6.0 0.00 0.00 0.00 78 1016.2
20260902120937 62 134 4.0 7.0 0.00 0.00 0.00 79 1016.3
20260902120439 62 177 2.0 7.0 0.00 0.00 0.00 79 1016.3
20260902115922 62 177 1.0 4.0 0.00 0.00 0.00 79 1016.3
20260902115443 62 120 1.0 3.0 0.00 0.00 0.00 80 1016.4
20260902114929 62 88 1.0 4.0 0.00 0.00 0.00 80 1016.2
20260902114431 62 134 2.0 4.0 0.00 0.00 0.00 80 1016.3
20260902113918 62 205 1.0 2.0 0.00 0.00 0.00 80 1016.2
20260902113443 62 128 1.0 4.0 0.00 0.00 0.00 80 1016.2
20260902112928 62 120 2.0 4.0 0.00 0.00 0.00 80 1016.1
20260902112432 62 177 1.0 3.0 0.00 0.00 0.00 80 1016.1
20260902111937 62 107 1.0 3.0 0.00 0.00 0.00 80 1016.2
20260902111421 62 134 0.0 2.0 0.00 0.00 0.00 80 1016.3
20260902110924 62 177 1.0 2.0 0.00 0.00 0.00 80 1016.2
20260902110429 62 88 0.0 3.0 0.00 0.00 0.00 80 1016.2
20260902105932 62 222 1.0 3.0 0.00 0.00 0.00 80 1016.3
20260902105418 62 134 1.0 2.0 0.00 0.00 0.00 80 1016.3
20260902104924 62 151 1.0 2.0 0.00 0.00 0.00 80 1016.3
20260902104458 62 116 1.0 2.0 0.00 0.00 0.00 80 1016.4
20260902103925 62 75 1.0 2.0 0.00 0.00 0.00 80 1016.4
20260902103426 62 88 1.0 2.0 0.00 0.00 0.00 80 1016.4
20260902102932 62 112 1.0 3.0 0.00 0.00 0.00 80 1016.4
20260902102447 62 156 1.0 3.0 0.00 0.00 0.00 80 1016.4
20260902101928 62 138 2.0 3.0 0.00 0.00 0.00 80 1016.3
20260902101435 62 127 2.0 3.0 0.00 0.00 0.00 80 1016.3
20260902100917 62 123 2.0 3.0 0.00 0.00 0.00 80 1016.3
20260902100423 62 112 2.0 3.0 0.00 0.00 0.00 80 1016.3
20260902095923 62 99 1.0 5.0 0.00 0.00 0.00 80 1016.3
20260902095429 62 104 3.0 5.0 0.00 0.00 0.00 80 1016.3
20260902094947 62 147 1.0 4.0 0.00 0.00 0.00 80 1016.3
20260902094434 62 222 1.0 5.0 0.00 0.00 0.00 80 1016.3
20260902093918 62 212 2.0 8.0 0.00 0.00 0.00 80 1016.3
20260902093423 62 235 3.0 9.0 0.00 0.00 0.00 80 1016.3
20260902092922 62 196 3.0 9.0 0.00 0.00 0.00 80 1016.3
20260902092426 62 215 4.0 8.0 0.00 0.00 0.00 80 1016.2
20260902091929 62 211 3.0 6.0 0.00 0.00 0.00 81 1016.2
20260902091432 62 230 4.0 6.0 0.00 0.00 0.00 81 1016.3
20260902090936 62 239 2.0 6.0 0.00 0.00 0.00 81 1016.3
20260902090419 62 240 2.0 6.0 0.00 0.00 0.00 81 1016.4
20260902085923 62 236 3.0 6.0 0.00 0.00 0.00 81 1016.5
20260902085446 62 259 2.0 5.0 0.00 0.00 0.00 81 1016.5
20260902084930 62 244 2.0 6.0 0.00 0.00 0.00 81 1016.5
20260902084433 62 212 2.0 6.0 0.00 0.00 0.00 81 1016.5
20260902083935 62 268 2.0 7.0 0.00 0.00 0.00 81 1016.5
20260902083420 61 196 3.0 6.0 0.00 0.00 0.00 81 1016.6
20260902082920 61 185 2.0 4.0 0.00 0.00 0.00 81 1016.7
20260902082424 61 239 1.0 3.0 0.00 0.00 0.00 81 1016.7
20260902081924 61 222 1.0 3.0 0.00 0.00 0.00 81 1016.7
20260902081431 61 251 1.0 4.0 0.00 0.00 0.00 81 1016.7
20260902080934 61 212 2.0 4.0 0.00 0.00 0.00 81 1016.6
20260902080439 62 232 2.0 4.0 0.00 0.00 0.00 81 1016.7
20260902075941 62 177 1.0 4.0 0.00 0.00 0.00 81 1016.7
20260902075455 62 189 1.0 5.0 0.00 0.00 0.00 81 1016.7
20260902074935 62 209 2.0 7.0 0.00 0.00 0.00 81 1016.6
20260902074421 62 212 4.0 7.0 0.00 0.00 0.00 81 1016.6
20260902073924 62 256 1.0 6.0 0.00 0.00 0.00 81 1016.6
20260902073427 62 184 2.0 7.0 0.00 0.00 0.00 81 1016.6
20260902073017 62 222 3.0 7.0 0.00 0.00 0.00 81 1016.6
20260902072434 62 222 3.0 8.0 0.00 0.00 0.00 82 1016.6
20260902071936 62 231 5.0 8.0 0.00 0.00 0.00 82 1016.5
20260902071420 62 251 4.0 8.0 0.00 0.00 0.00 82 1016.6
20260902070946 62 251 3.0 10.0 0.00 0.00 0.00 82 1016.7
20260902070456 62 240 4.0 7.0 0.00 0.00 0.00 83 1016.6
20260902065932 62 251 4.0 9.0 0.00 0.00 0.00 83 1016.5
20260902065435 61 206 4.0 9.0 0.00 0.00 0.00 83 1016.5
20260902064934 61 232 2.0 5.0 0.00 0.00 0.00 83 1016.5
20260902064437 61 226 2.0 5.0 0.00 0.00 0.00 83 1016.6
20260902063921 61 256 2.0 4.0 0.00 0.00 0.00 83 1016.5
20260902063423 61 212 2.0 4.0 0.00 0.00 0.00 83 1016.5
20260902062947 61 230 1.0 3.0 0.00 0.00 0.00 83 1016.7
20260902062433 61 177 1.0 3.0 0.00 0.00 0.00 83 1016.6
20260902061935 61 88 1.0 2.0 0.00 0.00 0.00 83 1016.6
20260902061437 61 205 1.0 3.0 0.00 0.00 0.00 83 1016.5
20260902060951 61 222 1.0 3.0 0.00 0.00 0.00 83 1016.6
20260902060459 61 215 1.0 2.0 0.00 0.00 0.00 83 1016.6
20260902055924 61 268 1.0 2.0 0.00 0.00 0.00 83 1016.7
20260902055425 61 134 1.0 2.0 0.00 0.00 0.00 83 1016.6
20260902054924 61 123 1.0 2.0 0.00 0.00 0.00 83 1016.6
20260902054429 61 134 1.0 2.0 0.00 0.00 0.00 83 1016.7
20260902053935 62 151 1.0 2.0 0.00 0.00 0.00 82 1016.6
20260902053419 62 116 1.0 2.0 0.00 0.00 0.00 82 1016.6
20260902052920 62 144 1.0 2.0 0.00 0.00 0.00 82 1016.7
20260902052421 62 123 1.0 2.0 0.00 0.00 0.00 82 1016.6
20260902051926 62 151 1.0 4.0 0.00 0.00 0.00 82 1016.6
20260902051427 62 151 2.0 4.0 0.00 0.00 0.00 82 1016.6
20260902050931 62 144 2.0 3.0 0.00 0.00 0.00 82 1016.7
20260902050435 62 148 2.0 3.0 0.00 0.00 0.00 82 1016.7
20260902045939 62 212 1.0 5.0 0.00 0.00 0.00 82 1016.8
20260902045424 62 192 2.0 6.0 0.00 0.00 0.00 82 1016.8
20260902044926 62 217 3.0 6.0 0.00 0.00 0.00 82 1016.8
20260902044432 62 205 2.0 5.0 0.00 0.00 0.00 82 1016.7
20260902043936 62 193 2.0 5.0 0.00 0.00 0.00 82 1016.8
20260902043420 62 213 2.0 5.0 0.00 0.00 0.00 82 1016.7
20260902042922 63 213 2.0 6.0 0.00 0.00 0.00 82 1016.8
20260902042428 63 177 3.0 5.0 0.00 0.00 0.00 82 1016.7
20260902041935 63 240 3.0 6.0 0.00 0.00 0.00 82 1016.8
20260902041436 63 198 2.0 6.0 0.00 0.00 0.00 82 1016.7
20260902040924 63 256 3.0 6.0 0.00 0.00 0.00 82 1016.7
20260902040458 63 219 3.0 9.0 0.00 0.00 0.00 82 1016.7
20260902035920 63 268 5.0 9.0 0.00 0.00 0.00 82 1016.6
20260902035425 63 209 3.0 8.0 0.00 0.00 0.00 82 1016.6
20260902034932 63 261 4.0 8.0 0.00 0.00 0.00 82 1016.6
20260902034418 63 223 4.0 8.0 0.00 0.00 0.00 82 1016.5
20260902033919 63 222 3.0 9.0 0.00 0.00 0.00 82 1016.5
20260902033424 63 220 4.0 10.0 0.00 0.00 0.00 82 1016.4
20260902032926 63 212 5.0 10.0 0.00 0.00 0.00 82 1016.4
20260902032434 63 313 4.0 7.0 0.00 0.00 0.00 82 1016.3
20260902031918 63 282 2.0 11.0 0.00 0.00 0.00 82 1016.4
20260902031423 63 323 3.0 11.0 0.00 0.00 0.00 82 1016.5
20260902030929 63 259 6.0 10.0 0.00 0.00 0.00 82 1016.4
20260902030429 63 215 4.0 7.0 0.00 0.00 0.00 82 1016.4
20260902025934 63 225 4.0 12.0 0.00 0.00 0.00 82 1016.4
20260902025447 63 239 7.0 12.0 0.00 0.00 0.00 81 1016.4
20260902024931 63 242 2.0 9.0 0.00 0.00 0.00 81 1016.3
20260902024437 63 235 5.0 10.0 0.00 0.00 0.00 81 1016.4
20260902023923 64 275 3.0 11.0 0.00 0.00 0.00 81 1016.3
20260902023444 63 268 6.0 11.0 0.00 0.00 0.00 80 1016.3
20260902022924 64 242 5.0 10.0 0.00 0.00 0.00 80 1016.3
20260902022429 64 268 3.0 10.0 0.00 0.00 0.00 80 1016.4
20260902021936 64 261 4.0 8.0 0.00 0.00 0.00 80 1016.4
20260902021452 64 200 5.0 11.0 0.00 0.00 0.00 80 1016.4
20260902020937 64 204 7.0 11.0 0.00 0.00 0.00 79 1016.2
20260902020421 64 235 5.0 10.0 0.00 0.00 0.00 79 1016.3
20260902015942 64 200 4.0 9.0 0.00 0.00 0.00 78 1016.3
20260902015457 64 251 5.0 9.0 0.00 0.00 0.00 78 1016.3
20260902014938 64 237 3.0 8.0 0.00 0.00 0.00 77 1016.3
20260902014452 64 252 4.0 10.0 0.00 0.00 0.00 76 1016.3
20260902013936 64 227 6.0 11.0 0.00 0.00 0.00 75 1016.3
20260902013440 64 222 5.0 12.0 0.00 0.00 0.00 75 1016.3
20260902012959 65 229 8.0 14.0 0.00 0.00 0.00 74 1016.3
20260902012422 65 221 6.0 15.0 0.00 0.00 0.00 74 1016.2
20260902011927 65 217 7.0 15.0 0.00 0.00 0.00 74 1016.1
20260902011433 65 211 8.0 14.0 0.00 0.00 0.00 73 1016.1
20260902010940 65 228 7.0 13.0 0.00 0.00 0.00 74 1016.1
20260902010435 65 221 9.0 13.0 0.00 0.00 0.00 74 1016.1
20260902005920 65 268 5.0 18.0 0.00 0.00 0.00 74 1016.1
20260902005420 65 212 9.0 18.0 0.00 0.00 0.00 73 1016.1
20260902004925 65 258 8.0 15.0 0.00 0.00 0.00 73 1016.2
20260902004428 66 236 6.0 13.0 0.00 0.00 0.00 73 1016.1
20260902003934 66 181 6.0 15.0 0.00 0.00 0.00 73 1016.0
20260902003435 66 205 6.0 15.0 0.00 0.00 0.00 73 1016.0
20260902002918 66 240 7.0 17.0 0.00 0.00 0.00 73 1016.0
20260902002442 66 198 7.0 17.0 0.00 0.00 0.00 73 1016.0
20260902001925 66 215 8.0 14.0 0.00 0.00 0.00 72 1016.0
20260902001455 66 221 9.0 14.0 0.00 0.00 0.00 71 1016.1
20260902000946 66 249 8.0 15.0 0.00 0.00 0.00 72 1016.1
20260902000429 66 241 9.0 16.0 0.00 0.00 0.00 72 1016.1
20260901235931 66 217 7.0 17.0 0.00 0.00 0.00 72 1016.1
20260901235438 66 225 9.0 18.0 0.00 0.00 0.00 72 1016.1
20260901234936 65 251 9.0 18.0 0.00 0.00 0.00 72 1016.2
20260901234419 66 202 6.0 16.0 0.00 0.00 0.00 73 1016.1
20260901233924 66 215 7.0 15.0 0.00 0.00 0.00 73 1016.2
20260901233429 66 225 9.0 15.0 0.00 0.00 0.00 73 1016.2
20260901232934 66 246 5.0 18.0 0.00 0.00 0.00 73 1016.2
20260901232420 67 226 8.0 14.0 0.00 0.00 0.00 73 1016.3
20260901231923 66 268 5.0 15.0 0.00 0.00 0.00 73 1016.3
20260901231423 66 219 8.0 15.0 0.00 0.00 0.00 73 1016.4
20260901230931 67 224 8.0 15.0 0.00 0.00 0.00 73 1016.4
20260901230434 66 223 8.0 17.0 0.00 0.00 0.00 73 1016.4
20260901225918 66 251 10.0 17.0 0.00 0.00 0.00 72 1016.5
20260901225444 66 209 10.0 18.0 0.00 0.00 0.00 72 1016.5
20260901224955 67 240 7.0 18.0 0.00 0.00 0.00 72 1016.6
20260901224419 67 334 6.0 13.0 0.00 0.00 0.00 71 1016.5
20260901223921 68 209 7.0 13.0 0.00 0.00 0.00 71 1016.6
20260901223424 68 227 6.0 14.0 0.00 0.00 0.00 72 1016.6
20260901222927 67 275 8.0 16.0 0.00 0.00 0.00 72 1016.6
20260901222433 67 237 6.0 16.0 0.00 0.00 0.00 72 1016.5
20260901221936 67 283 8.0 17.0 0.00 0.00 0.00 72 1016.6
20260901221420 67 220 10.0 17.0 0.00 0.00 0.00 72 1016.6
20260901220926 67 227 6.0 16.0 0.00 0.00 0.00 72 1016.6
20260901220454 67 214 11.0 16.0 0.00 0.00 0.00 72 1016.6
20260901215937 67 268 7.0 14.0 0.00 0.00 0.00 72 1016.6
20260901215441 67 294 9.0 14.0 0.00 0.00 0.00 72 1016.5
20260901214952 68 295 9.0 16.0 0.00 0.00 0.00 71 1016.5
20260901214437 68 242 7.0 16.0 0.00 0.00 0.00 70 1016.5
20260901213940 68 271 6.0 14.0 0.00 0.00 0.00 70 1016.5
20260901213438 68 231 8.0 14.0 0.00 0.00 0.00 70 1016.5
20260901212951 68 263 7.0 14.0 0.00 0.00 0.00 70 1016.6
20260901212433 68 296 7.0 15.0 0.00 0.00 0.00 71 1016.6
20260901211918 67 237 6.0 15.0 0.00 0.00 0.00 72 1016.5
20260901211442 67 226 5.0 12.0 0.00 0.00 0.00 71 1016.6
20260901210925 67 235 5.0 12.0 0.00 0.00 0.00 71 1016.6
20260901210425 67 271 6.0 14.0 0.00 0.00 0.00 70 1016.5
20260901205930 67 322 7.0 14.0 0.00 0.00 0.00 71 1016.4
20260901205435 67 271 7.0 14.0 0.00 0.00 0.00 71 1016.4
20260901204948 67 275 7.0 13.0 0.00 0.00 0.00 70 1016.5
20260901204434 67 281 6.0 14.0 0.00 0.00 0.00 70 1016.5
20260901203918 67 252 8.0 14.0 0.00 0.00 0.00 70 1016.6
20260901203423 66 247 6.0 12.0 0.00 0.00 0.00 71 1016.5
20260901202921 66 261 7.0 12.0 0.00 0.00 0.00 71 1016.5
20260901202426 67 239 6.0 13.0 0.00 0.00 0.00 70 1016.6
20260901201931 67 220 6.0 14.0 0.00 0.00 0.00 71 1016.6
20260901201436 67 273 7.0 14.0 0.00 0.00 0.00 73 1016.6
20260901200921 66 273 7.0 13.0 0.00 0.00 0.00 72 1016.6
20260901200428 67 230 8.0 14.0 0.00 0.00 0.00 72 1016.6
20260901195929 66 234 6.0 15.0 0.00 0.00 0.00 71 1016.6
20260901195432 66 196 7.0 15.0 0.00 0.00 0.00 70 1016.6
20260901194935 66 207 7.0 16.0 0.00 0.00 0.00 70 1016.6
20260901194420 66 212 8.0 15.0 0.00 0.00 0.00 71 1016.7
20260901193952 66 209 7.0 15.0 0.00 0.00 0.00 72 1016.7
20260901193438 66 233 9.0 15.0 0.00 0.00 0.00 72 1016.6
20260901192919 66 238 7.0 14.0 0.00 0.00 0.00 73 1016.8
20260901192422 66 282 6.0 14.0 0.00 0.00 0.00 72 1016.8
20260901191921 66 222 5.0 14.0 0.00 0.00 0.00 73 1016.9
20260901191427 66 238 7.0 14.0 0.00 0.00 0.00 73 1016.8
20260901190932 66 211 6.0 14.0 0.00 0.00 0.00 74 1016.9
20260901190427 65 222 10.0 14.0 0.00 0.00 0.00 73 1016.7
20260901185922 65 259 6.0 14.0 0.00 0.00 0.00 73 1016.8
20260901185426 66 230 7.0 14.0 0.00 0.00 0.00 74 1016.9
20260901184932 65 222 8.0 16.0 0.00 0.00 0.00 74 1016.8
20260901184433 66 189 7.0 11.0 0.00 0.00 0.00 74 1016.8
20260901183928 66 264 5.0 12.0 0.00 0.00 0.00 74 1016.8
20260901183430 65 221 7.0 12.0 0.00 0.00 0.00 74 1016.8
20260901182934 65 299 4.0 10.0 0.00 0.00 0.00 74 1016.8
20260901182419 65 257 5.0 10.0 0.00 0.00 0.00 74 1016.8
20260901181924 65 249 4.0 10.0 0.00 0.00 0.00 75 1016.8
20260901181428 65 222 7.0 10.0 0.00 0.00 0.00 74 1016.7
20260901180929 65 207 5.0 10.0 0.00 0.00 0.00 73 1016.8
20260901180435 65 213 5.0 10.0 0.00 0.00 0.00 74 1016.7
20260901175947 65 227 6.0 10.0 0.00 0.00 0.00 75 1016.7
20260901175430 65 214 2.0 10.0 0.00 0.00 0.00 77 1016.8
20260901174931 64 183 4.0 10.0 0.00 0.00 0.00 77 1016.7
20260901174435 64 231 5.0 12.0 0.00 0.00 0.00 76 1016.7
20260901173937 65 203 5.0 9.0 0.00 0.00 0.00 77 1016.6
20260901173447 64 183 5.0 11.0 0.00 0.00 0.00 77 1016.5
20260901172929 64 212 6.0 11.0 0.00 0.00 0.00 77 1016.5